• In Kazakhstan
  • List of Countries
  • For 7 days
  • Water Temperature
  • Satellite Maps
  • Weather Map
  • News
  • Weather Widgets
  • user-avatar
    Login

    Hourly Weather Graz

    Today, 22 October, Sunday

    Time Temperature Precipitation Wind Pressure Humidity
    00:00 +11°C° 0 mm 1 mps 724 mmHg 76%
    01:00 +11°C° 0 mm 1 mps 724 mmHg 77%
    02:00 +11°C° 0 mm 1 mps 723 mmHg 78%
    03:00 +11°C° 0 mm 1 mps 723 mmHg 78%
    04:00 +11°C° 0 mm 1 mps 723 mmHg 79%
    05:00 +11°C° 0 mm 1 mps 723 mmHg 79%
    06:00 +10°C° 0 mm 1 mps 723 mmHg 80%
    07:00 +10°C° 0 mm 1 mps 723 mmHg 80%
    08:00 +12°C° 0 mm 1 mps 723 mmHg 75%
    09:00 +14°C° 0 mm 1 mps 723 mmHg 70%
    10:00 +15°C° 0 mm 2 mps 724 mmHg 65%
    11:00 +15°C° 0.6 mm 2 mps 723 mmHg 71%
    12:00 +14°C° 0.6 mm 2 mps 723 mmHg 76%
    13:00 +13°C° 0.6 mm 2 mps 723 mmHg 82%
    14:00 +12°C° 2.6 mm 2 mps 722 mmHg 86%
    15:00 +10°C° 2.6 mm 2 mps 722 mmHg 89%
    16:00 +11°C° 2.6 mm 1 mps 722 mmHg 93%
    17:00 +10°C° 1.3 mm 1 mps 722 mmHg 93%
    18:00 +10°C° 1.3 mm 1 mps 723 mmHg 93%
    19:00 +10°C° 1.3 mm 1 mps 723 mmHg 93%
    20:00 +8°C° 0.3 mm 2 mps 723 mmHg 92%
    21:00 +8°C° 0.3 mm 2 mps 723 mmHg 91%
    22:00 +8°C° 0.3 mm 2 mps 723 mmHg 90%
    23:00 +8°C° 0.1 mm 2 mps 722 mmHg 89%

    Tomorrow, 23 October, Monday

    Time Temperature Precipitation Wind Pressure Humidity
    00:00 +8°C° 0.1 mm 2 mps 722 mmHg 88%
    01:00 +8°C° 0.1 mm 2 mps 722 mmHg 87%
    02:00 +7°C° 0 mm 2 mps 722 mmHg 87%
    03:00 +7°C° 0 mm 2 mps 722 mmHg 87%
    04:00 +7°C° 0 mm 2 mps 722 mmHg 87%
    05:00 +7°C° 0 mm 2 mps 722 mmHg 86%
    06:00 +7°C° 0 mm 2 mps 722 mmHg 86%
    07:00 +7°C° 0 mm 3 mps 722 mmHg 85%
    08:00 +8°C° 0 mm 3 mps 722 mmHg 81%
    09:00 +7°C° 0 mm 4 mps 722 mmHg 76%
    10:00 +8°C° 0 mm 4 mps 722 mmHg 71%
    11:00 +8°C° 0 mm 5 mps 722 mmHg 67%
    12:00 +9°C° 0 mm 5 mps 723 mmHg 63%
    13:00 +9°C° 0 mm 5 mps 723 mmHg 60%
    14:00 +9°C° 0 mm 5 mps 723 mmHg 61%
    15:00 +10°C° 0 mm 4 mps 723 mmHg 63%
    16:00 +10°C° 0 mm 4 mps 723 mmHg 64%
    17:00 +9°C° 0 mm 3 mps 723 mmHg 69%
    18:00 +8°C° 0 mm 3 mps 724 mmHg 74%
    19:00 +7°C° 0 mm 2 mps 724 mmHg 78%
    20:00 +7°C° 0 mm 2 mps 724 mmHg 80%
    21:00 +7°C° 0 mm 2 mps 725 mmHg 81%
    22:00 +6°C° 0 mm 2 mps 725 mmHg 82%
    23:00 +7°C° 0 mm 2 mps 725 mmHg 82%

    Day after tomorrow, 24 October, Tuesday

    Time Temperature Precipitation Wind Pressure Humidity
    00:00 +7°C° 0 mm 2 mps 725 mmHg 83%
    01:00 +7°C° 0 mm 2 mps 726 mmHg 83%
    02:00 +6°C° 0 mm 2 mps 726 mmHg 84%
    03:00 +6°C° 0 mm 2 mps 726 mmHg 85%
    04:00 +6°C° 0 mm 2 mps 726 mmHg 86%
    05:00 +6°C° 0 mm 2 mps 726 mmHg 86%
    06:00 +6°C° 0 mm 2 mps 727 mmHg 86%
    07:00 +6°C° 0 mm 2 mps 727 mmHg 87%
    08:00 +8°C° 0 mm 3 mps 727 mmHg 78%
    09:00 +10°C° 0 mm 4 mps 728 mmHg 69%
    10:00 +12°C° 0 mm 5 mps 728 mmHg 60%
    11:00 +12°C° 0 mm 5 mps 728 mmHg 59%
    12:00 +13°C° 0 mm 5 mps 728 mmHg 57%
    13:00 +13°C° 0 mm 5 mps 728 mmHg 56%
    14:00 +13°C° 0 mm 4 mps 728 mmHg 59%
    15:00 +12°C° 0 mm 3 mps 728 mmHg 63%
    16:00 +12°C° 0 mm 3 mps 728 mmHg 66%
    17:00 +12°C° 0 mm 2 mps 729 mmHg 73%
    18:00 +9°C° 0 mm 2 mps 729 mmHg 80%
    19:00 +8°C° 0 mm 2 mps 729 mmHg 86%
    20:00 +8°C° 0 mm 2 mps 730 mmHg 88%
    21:00 +7°C° 0 mm 2 mps 730 mmHg 89%
    22:00 +7°C° 0 mm 2 mps 730 mmHg 91%
    23:00 +7°C° 0 mm 2 mps 730 mmHg 92%

    25 October, Wednesday

    Time Temperature Precipitation Wind Pressure Humidity
    00:00 +7°C° 0 mm 2 mps 730 mmHg 93%
    01:00 +8°C° 0 mm 1 mps 730 mmHg 93%
    02:00 +8°C° 0 mm 1 mps 730 mmHg 94%
    03:00 +8°C° 0 mm 1 mps 731 mmHg 94%
    04:00 +8°C° 0 mm 1 mps 731 mmHg 94%
    05:00 +8°C° 0 mm 1 mps 731 mmHg 94%
    06:00 +8°C° 0 mm 1 mps 731 mmHg 94%
    07:00 +8°C° 0 mm 1 mps 731 mmHg 94%
    08:00 +10°C° 0 mm 1 mps 731 mmHg 85%
    09:00 +13°C° 0 mm 1 mps 731 mmHg 75%
    10:00 +15°C° 0 mm 0 mps 732 mmHg 66%
    11:00 +16°C° 0 mm 0 mps 731 mmHg 62%
    12:00 +19°C° 0 mm 1 mps 731 mmHg 59%
    13:00 +20°C° 0 mm 1 mps 731 mmHg 55%
    14:00 +19°C° 0 mm 1 mps 731 mmHg 60%
    15:00 +18°C° 0 mm 1 mps 731 mmHg 65%
    16:00 +16°C° 0 mm 1 mps 731 mmHg 70%
    17:00 +15°C° 0 mm 1 mps 731 mmHg 76%
    18:00 +13°C° 0 mm 1 mps 731 mmHg 81%
    19:00 +12°C° 0 mm 1 mps 731 mmHg 86%
    20:00 +11°C° 0 mm 1 mps 731 mmHg 87%
    21:00 +11°C° 0 mm 1 mps 731 mmHg 87%
    22:00 +11°C° 0 mm 1 mps 731 mmHg 88%
    23:00 +11°C° 0 mm 1 mps 731 mmHg 88%

    26 October, Thursday

    Time Temperature Precipitation Wind Pressure Humidity
    00:00 +11°C° 0 mm 1 mps 731 mmHg 87%
    01:00 +11°C° 0 mm 1 mps 731 mmHg 87%
    02:00 +11°C° 0 mm 1 mps 731 mmHg 87%
    03:00 +11°C° 0 mm 1 mps 731 mmHg 86%
    04:00 +11°C° 0 mm 1 mps 731 mmHg 86%
    05:00 +11°C° 0 mm 1 mps 732 mmHg 85%
    06:00 +11°C° 0 mm 1 mps 732 mmHg 85%
    07:00 +11°C° 0 mm 1 mps 732 mmHg 84%
    08:00 +13°C° 0 mm 1 mps 732 mmHg 76%
    09:00 +16°C° 0 mm 1 mps 732 mmHg 67%
    10:00 +18°C° 0 mm 0 mps 733 mmHg 58%
    11:00 +19°C° 0 mm 0 mps 732 mmHg 55%
    12:00 +22°C° 0 mm 1 mps 732 mmHg 52%
    13:00 +23°C° 0 mm 1 mps 732 mmHg 49%
    14:00 +22°C° 0 mm 1 mps 731 mmHg 55%
    15:00 +20°C° 0 mm 1 mps 731 mmHg 61%
    16:00 +19°C° 0 mm 1 mps 731 mmHg 67%
    17:00 +18°C° 0 mm 1 mps 730 mmHg 72%
    18:00 +15°C° 0 mm 1 mps 730 mmHg 77%
    19:00 +13°C° 0 mm 1 mps 730 mmHg 82%
    20:00 +13°C° 0 mm 1 mps 730 mmHg 82%
    21:00 +13°C° 0 mm 1 mps 730 mmHg 83%
    22:00 +12°C° 0 mm 1 mps 730 mmHg 84%
    23:00 +12°C° 0 mm 1 mps 730 mmHg 83%

    27 October, Friday

    Time Temperature Precipitation Wind Pressure Humidity
    00:00 +12°C° 0 mm 1 mps 729 mmHg 82%
    01:00 +12°C° 0 mm 1 mps 729 mmHg 82%
    02:00 +12°C° 0 mm 1 mps 729 mmHg 80%
    03:00 +11°C° 0 mm 1 mps 728 mmHg 78%
    04:00 +11°C° 0 mm 1 mps 728 mmHg 77%
    05:00 +11°C° 0 mm 1 mps 728 mmHg 75%
    06:00 +11°C° 0 mm 1 mps 727 mmHg 73%
    07:00 +12°C° 0 mm 1 mps 727 mmHg 71%
    08:00 +14°C° 0 mm 1 mps 727 mmHg 65%
    09:00 +16°C° 0 mm 1 mps 727 mmHg 59%
    10:00 +19°C° 0 mm 1 mps 727 mmHg 54%
    11:00 +20°C° 0 mm 1 mps 726 mmHg 51%
    12:00 +20°C° 0 mm 2 mps 726 mmHg 49%
    13:00 +21°C° 0 mm 2 mps 725 mmHg 46%
    14:00 +21°C° 0 mm 1 mps 725 mmHg 52%
    15:00 +20°C° 0 mm 1 mps 724 mmHg 58%
    16:00 +19°C° 0 mm 1 mps 724 mmHg 64%
    17:00 +18°C° 0.1 mm 1 mps 724 mmHg 68%
    18:00 +15°C° 0.1 mm 1 mps 724 mmHg 72%
    19:00 +14°C° 0.1 mm 1 mps 723 mmHg 76%
    20:00 +14°C° 0.5 mm 1 mps 723 mmHg 77%
    21:00 +14°C° 0.5 mm 1 mps 723 mmHg 78%
    22:00 +14°C° 0.5 mm 1 mps 723 mmHg 79%
    23:00 +14°C° 0.9 mm 1 mps 723 mmHg 82%
    Show more